Flag for Canada Weather past 2 weeks in Quesnel, British Columbia, Canada

Now
23 °F

Light snow. Overcast.


Feels Like: 9 °F
Forecast: 15 / 30 °F
Wind: 17 mph from Northwest

Location: Quesnel Airport

Current Time: Dec 28, 2014 at 10:13:12 AM

Latest Report: Dec 28, 2014 at 9:00 AM


Visibility: 9 mi

Pressure: 30.32 "Hg

Humidity: 93%

Dew point: 21 °F

Location of QuesnelLocation

Historic Weather in Quesnel — Graph

°F

Quesnel temperature yesterday

Maximum temperature yesterday: 34 °F (at 1:00 PM)
Minimum temperature yesterday: 27 °F (at 4:00 PM)
Average temperature yesterday: 30 °F

Past Weeks' High & Low Weather Summary

 TemperatureHumidityPressure
High41 °F (Dec 19, 6:00 AM)100% (Dec 14, 4:00 AM)30.37 "Hg (Dec 14, 4:00 AM)
Low18 °F (Dec 16, 5:00 AM)57% (Dec 20, 6:00 AM)29.26 "Hg (Dec 20, 10:01 PM)
Average30 °F92%29.97 "Hg
* Reported Dec 13 8:02 AM — Dec 28 8:00 AM, Quesnel, Weather by CustomWeather, © 2014

Note: Actual official high and low records may vary slightly from our data, if they occured in-between our weather recording intervals... More about our weather records

Advertising

Quesnel weather history for previous 24 hours

 ConditionsComfort  
Time TempWeatherWind HumidityBarometerVisibility
8:00 AM
Dec 28
25 °FLight snow. Overcast.20 mph93%30.29 "Hg2 mi
7:59 AM25 °FLight snow. Overcast.20 mph93%30.29 "Hg2 mi
7:00 AM25 °FLight snow. Overcast.16 mph93%30.28 "Hg5 mi
6:58 AM25 °FLight snow. Overcast.15 mph93%30.28 "Hg5 mi
6:04 AM27 °FLight snow. Overcast.12 mph93%30.27 "Hg6 mi
5:00 AM27 °FLight snow. Overcast.13 mph93%30.25 "Hg4 mi
4:56 AM27 °FLight snow. Overcast.13 mph100%30.25 "Hg5 mi
4:00 AM28 °FLight snow. Overcast.14 mph93%30.23 "Hg9 mi
3:04 AM28 °FLight snow. Mostly cloudy.16 mph100%30.19 "Hg6 mi
2:58 AM28 °FLight snow. Overcast.14 mph100%30.19 "Hg5 mi
2:00 AM30 °FLight snow. Overcast.12 mph93%30.17 "Hg7 mi
1:00 AM30 °FLight snow. Overcast.10 mph93%30.14 "Hg9 mi
12:46 AM30 °FLight snow. Overcast.12 mph93%30.14 "Hg9 mi
12:00 AM30 °FLight snow. Mostly cloudy.10 mph93%30.12 "Hg9 mi
11:45 PM
Dec 27
30 °FLight snow. Mostly cloudy.8 mph100%30.12 "Hg6 mi
11:00 PM30 °FLight snow. Overcast.9 mph100%30.11 "Hg3 mi
10:46 PM30 °FLight snow. Overcast.10 mph100%30.10 "Hg3 mi
10:04 PM30 °FLight snow. Overcast.9 mph100%30.08 "Hg2 mi
10:00 PM30 °FLight snow. Overcast.8 mph100%30.08 "Hg2 mi
9:45 PM30 °FLight snow. Mostly cloudy.10 mph100%30.08 "Hg2 mi
9:00 PM30 °FLight snow. Ice fog.No windN/A30.06 "Hg1 mi
8:00 PM28 °FLight snow. Mostly cloudy.No windN/A30.03 "Hg1 mi
7:00 PM28 °FLight snow. Mostly cloudy.No windN/A30.01 "Hg1 mi
6:55 PM28 °FLight snow. Overcast.No windN/A30.01 "Hg1 mi
6:00 PM27 °FMostly cloudy.No windN/A29.99 "Hg9 mi
5:55 PM27 °FMostly cloudy.No windN/A29.99 "Hg6 mi
5:01 PM27 °FLow clouds.No windN/A29.98 "Hg3 mi
4:00 PM27 °FIce fog.No windN/A29.97 "Hg0 mi
3:00 PM32 °FSunny.3 mph93%29.94 "Hg9 mi
2:00 PM32 °FSunny.6 mph93%29.93 "Hg9 mi
1:00 PM34 °FPassing clouds.10 mph87%29.92 "Hg9 mi
12:00 PM32 °FLight snow. Cloudy.7 mph93%29.93 "Hg4 mi
11:58 AM32 °FLight snow. Cloudy.8 mph93%29.93 "Hg4 mi
11:00 AM30 °FLight snow. Overcast.9 mph100%29.94 "Hg3 mi
10:56 AM30 °FLight snow. Overcast.10 mph100%29.94 "Hg2 mi
10:03 AM30 °FSnow. Ice fog.10 mph100%29.95 "Hg1 mi
Weather by CustomWeather, © 2014

See weather overviewHow to use our weather pages